DECAYED

PSLV R/B, 44234 (Decayed)

Orbit data source: Space-Track

PSLV R/B, 44234 was space debris in LEO originally from a launch on Wed, 22 May 2019 UTC launched from the Sirharikota (SRI). Debris objects in space refer to the collection of defunct objects orbiting the Earth. Examples of debris include non-operational satellites, rocket bodies, and fragments generated from explosions, collisions, or faulty payload assembly.

Not visible in the next 10 days
Identifier
44234, 2019-028B
Orbit
Decayed
Country
Flag of ININ / IND
Related business
Manufacturer
VSSC/LPSC
Mission
Decayed spacecraft
Bus & Motor
PS-4, Unknown motor
Mass
920 kg wet, 920 kg dry
Launch date (UTC)
2019-05-22 (7 years ago)
Launch vehicle
Unknown
Launch site
Sirharikota (SRI)
Object type
Payload
Rocket body
Debris
Shape & HBR
Cyl + Cyl + 2 Nozzle, 1.5 m
Radar Cross Section
3.727 m², Large (>1 m²)

Expand to show TLE details & history
Last TLE update: 4 months ago

TLE from 4 months ago
0 PSLV R/B
1 44234U 19028B   26055.53635881  .05723466  37575-5  50095-3 0  9991
2 44234  36.9986   0.2289 0004202 263.9067  96.1241 16.38137855378156
Epoch: 2026-02-24T12:52Z
TLE epoch observation values (Epoch: 2026-02-24T12:52:21.401Z)
Latitude
-0.00003°
Longitude
12.72521°
Altitude
170.13 km
Speed
7.806 km/s
True Right ascension
00h 00m 54s
True Declination
0° 00' 00"
Sunlit
Object was in daylight at epoch
Visualization orbit readout
Latitude
Unknown
Longitude
Unknown
Altitude
Unknown
Speed
Unknown
Apparent Right ascension
Unknown
Apparent Declination
Unknown
Sunlit
N/A
Visualization observer readout
Local Sidereal Time
21:30:26
Azimuth
Unknown
Elevation
Unknown
Doppler factor
Unknown
Orbital elements
Apogee altitude
176.591 km
Perigee altitude
171.084 km
Semi-major axis
6,551.975 km
Eccentricity
0.00042
Inclination
36.9986°
RAAN
0.2289°
Arg. of periapsis
263.9067°
True anomaly
96.17197°
Mean anomaly
96.1241°
Eccentric anomaly
96.14804°
Mean motion
4.09246 °/min
Orbital period
87.97 mins
BSTAR
0.00050095
Loading maneuver chart data...
Computing Atmospheric mass density...
Loading historical data...
Loading historical data...
Loading historical data...
Loading historical data...
Loading historical data...
Loading historical data...
Loading historical data...
Other satellites on launch #28 in the year 2019 (2019-05-22 UTC)

Documentation

Showing up to 5 results
|